| time (UTC) | temp C | wind direction | speed KPH | gust KPH | rain 1hr cm | rain 24hr cm | rain mn cm | humidity % | barometer mb |
| 20260507163802 | 16 | 145 | 9.7 | 19.3 | 0.00 | 0.00 | 0.00 | 40 | 1016.8 |
| 20260507162801 | 16 | 303 | 4.8 | 12.9 | 0.00 | 0.00 | 0.00 | 41 | 1016.8 |
| 20260507162306 | 16 | 231 | 4.8 | 8.0 | 0.00 | 0.00 | 0.00 | 42 | 1016.8 |
| 20260507161801 | 15 | 257 | 8.0 | 12.9 | 0.00 | 0.00 | 0.00 | 40 | 1016.8 |
| 20260507161302 | 15 | 306 | 8.0 | 11.3 | 0.00 | 0.00 | 0.00 | 41 | 1016.8 |
| 20260507160302 | 15 | 145 | 8.0 | 16.1 | 0.00 | 0.00 | 0.00 | 42 | 1017.4 |
| 20260507155802 | 15 | 145 | 8.0 | 16.1 | 0.00 | 0.00 | 0.00 | 43 | 1017.4 |
| 20260507155305 | 15 | 284 | 8.0 | 20.9 | 0.00 | 0.00 | 0.00 | 43 | 1017.4 |
| 20260507154802 | 15 | 145 | 8.0 | 20.9 | 0.00 | 0.00 | 0.00 | 45 | 1017.3 |
| 20260507154302 | 15 | 167 | 8.0 | 19.3 | 0.00 | 0.00 | 0.00 | 46 | 1017.3 |
| 20260507153802 | 14 | 145 | 8.0 | 16.1 | 0.00 | 0.00 | 0.00 | 49 | 1017.3 |
| 20260507153303 | 14 | 128 | 4.8 | 14.5 | 0.00 | 0.00 | 0.00 | 51 | 1017.3 |
| 20260507152802 | 14 | 145 | 8.0 | 9.7 | 0.00 | 0.00 | 0.00 | 51 | 1017.7 |
| 20260507152305 | 14 | 145 | 8.0 | 19.3 | 0.00 | 0.00 | 0.00 | 51 | 1017.7 |
| 20260507151802 | 14 | 145 | 4.8 | 14.5 | 0.00 | 0.00 | 0.00 | 49 | 1017.7 |
| 20260507150802 | 13 | 167 | 4.8 | 12.9 | 0.00 | 0.00 | 0.00 | 53 | 1018.0 |
| 20260507150302 | 13 | 209 | 4.8 | 24.1 | 0.00 | 0.00 | 0.00 | 54 | 1018.0 |
| 20260507145802 | 13 | 145 | 4.8 | 24.1 | 0.00 | 0.00 | 0.00 | 54 | 1018.0 |
| 20260507145306 | 13 | 151 | 8.0 | 12.9 | 0.00 | 0.00 | 0.00 | 54 | 1018.0 |
| 20260507144802 | 13 | 325 | 6.4 | 12.9 | 0.00 | 0.00 | 0.00 | 55 | 1018.0 |
| 20260507144302 | 13 | 161 | 4.8 | 12.9 | 0.00 | 0.00 | 0.00 | 56 | 1018.0 |
| 20260507143802 | 13 | 145 | 4.8 | 12.9 | 0.00 | 0.00 | 0.00 | 55 | 1018.0 |
| 20260507143302 | 13 | 167 | 4.8 | 11.3 | 0.00 | 0.00 | 0.00 | 56 | 1018.0 |
| 20260507142802 | 12 | 190 | 4.8 | 8.0 | 0.00 | 0.00 | 0.00 | 56 | 1017.7 |
| 20260507142306 | 12 | 282 | 3.2 | 8.0 | 0.00 | 0.00 | 0.00 | 58 | 1017.7 |
| 20260507141302 | 12 | 145 | 3.2 | 8.0 | 0.00 | 0.00 | 0.00 | 61 | 1017.7 |
| 20260507140802 | 12 | 190 | 1.6 | 8.0 | 0.00 | 0.00 | 0.00 | 60 | 1017.6 |
| 20260507140302 | 12 | 161 | 1.6 | 8.0 | 0.00 | 0.00 | 0.00 | 62 | 1017.6 |
| 20260507135802 | 12 | 213 | 1.6 | 8.0 | 0.00 | 0.00 | 0.00 | 64 | 1017.6 |
| 20260507135306 | 11 | 166 | 1.6 | 8.0 | 0.00 | 0.00 | 0.00 | 64 | 1017.6 |
| 20260507134302 | 11 | 257 | 1.6 | 8.0 | 0.00 | 0.00 | 0.00 | 65 | 1017.9 |
| 20260507133803 | 11 | 167 | 1.6 | 0.0 | 0.00 | 0.00 | 0.00 | 67 | 1017.9 |
| 20260507133303 | 11 | 184 | 1.6 | 0.0 | 0.00 | 0.00 | 0.00 | 68 | 1017.9 |
| 20260507132802 | 10 | 145 | 0.0 | 3.2 | 0.00 | 0.00 | 0.00 | 71 | 1018.1 |
| 20260507132306 | 10 | 156 | 1.6 | 8.0 | 0.00 | 0.00 | 0.00 | 72 | 1018.1 |
| 20260507131302 | 10 | 201 | 1.6 | 4.8 | 0.00 | 0.00 | 0.00 | 78 | 1018.1 |
| 20260507130302 | 8 | 145 | 0.0 | 4.8 | 0.00 | 0.00 | 0.00 | 81 | 1018.1 |
| 20260507125804 | 8 | 303 | 0.0 | 0.0 | 0.00 | 0.00 | 0.00 | 82 | 1018.1 |
| 20260507125306 | 8 | 167 | 0.0 | 0.0 | 0.00 | 0.00 | 0.00 | 82 | 1018.1 |
| 20260507124802 | 8 | 190 | 1.6 | 0.0 | 0.00 | 0.00 | 0.00 | 82 | 1017.9 |
| 20260507124302 | 7 | 181 | 1.6 | 8.0 | 0.00 | 0.00 | 0.00 | 82 | 1017.9 |
| 20260507123803 | 7 | 190 | 1.6 | 8.0 | 0.00 | 0.00 | 0.00 | 83 | 1017.9 |
| 20260507123303 | 7 | 190 | 0.0 | 0.0 | 0.00 | 0.00 | 0.00 | 83 | 1017.9 |
| 20260507122803 | 7 | 167 | 0.0 | 0.0 | 0.00 | 0.00 | 0.00 | 84 | 1017.7 |
| 20260507122306 | 6 | 145 | 0.0 | 0.0 | 0.00 | 0.00 | 0.00 | 84 | 1017.7 |
| 20260507121802 | 6 | 145 | 0.0 | 0.0 | 0.00 | 0.00 | 0.00 | 85 | 1017.7 |
| 20260507120802 | 6 | 145 | 0.0 | 0.0 | 0.00 | 0.00 | 0.00 | 86 | 1017.8 |
| 20260507120302 | 6 | 167 | 0.0 | 0.0 | 0.00 | 0.00 | 0.00 | 86 | 1017.8 |
| 20260507115802 | 6 | 167 | 0.0 | 0.0 | 0.00 | 0.00 | 0.00 | 86 | 1017.8 |
| 20260507115306 | 6 | 167 | 0.0 | 0.0 | 0.00 | 0.00 | 0.00 | 86 | 1017.8 |
| 20260507113802 | 5 | 190 | 0.0 | 0.0 | 0.00 | 0.00 | 0.00 | 85 | 1017.3 |
| 20260507113302 | 5 | 347 | 0.0 | 0.0 | 0.00 | 0.00 | 0.00 | 86 | 1017.3 |
| 20260507112803 | 5 | 347 | 0.0 | 0.0 | 0.00 | 0.00 | 0.00 | 85 | 1017.3 |
| 20260507112306 | 5 | 167 | 0.0 | 0.0 | 0.00 | 0.00 | 0.00 | 85 | 1017.3 |
| 20260507111302 | 5 | 167 | 0.0 | 0.0 | 0.00 | 0.00 | 0.00 | 85 | 1017.3 |
| 20260507110803 | 5 | 303 | 0.0 | 0.0 | 0.00 | 0.00 | 0.00 | 85 | 1017.1 |
| 20260507110302 | 5 | 303 | 0.0 | 0.0 | 0.00 | 0.00 | 0.00 | 84 | 1017.1 |
| 20260507105803 | 5 | 303 | 0.0 | 0.0 | 0.00 | 0.00 | 0.00 | 84 | 1017.1 |
| 20260507105306 | 5 | 316 | 0.0 | 0.0 | 0.00 | 0.00 | 0.00 | 84 | 1017.1 |
| 20260507104802 | 5 | 167 | 0.0 | 0.0 | 0.00 | 0.00 | 0.00 | 83 | 1016.8 |
| 20260507103802 | 6 | 167 | 0.0 | 0.0 | 0.00 | 0.00 | 0.00 | 82 | 1016.8 |
| 20260507103302 | 6 | 167 | 0.0 | 0.0 | 0.00 | 0.00 | 0.00 | 82 | 1016.8 |
| 20260507102802 | 6 | 167 | 0.0 | 0.0 | 0.00 | 0.00 | 0.00 | 81 | 1017.1 |
| 20260507101802 | 6 | 145 | 0.0 | 0.0 | 0.00 | 0.00 | 0.00 | 81 | 1017.1 |
| 20260507101302 | 6 | 145 | 0.0 | 0.0 | 0.00 | 0.00 | 0.00 | 81 | 1017.1 |
| 20260507100802 | 6 | 145 | 0.0 | 0.0 | 0.00 | 0.00 | 0.00 | 81 | 1017.1 |
| 20260507100303 | 6 | 145 | 0.0 | 0.0 | 0.00 | 0.00 | 0.00 | 81 | 1017.1 |
| 20260507095802 | 6 | 145 | 0.0 | 0.0 | 0.00 | 0.00 | 0.00 | 81 | 1017.1 |
| 20260507095305 | 6 | 145 | 0.0 | 0.0 | 0.00 | 0.00 | 0.00 | 81 | 1017.1 |
| 20260507094802 | 6 | 145 | 0.0 | 0.0 | 0.00 | 0.00 | 0.00 | 82 | 1017.1 |
| 20260507094303 | 6 | 145 | 0.0 | 0.0 | 0.00 | 0.00 | 0.00 | 81 | 1017.1 |
| 20260507093803 | 6 | 145 | 0.0 | 0.0 | 0.00 | 0.00 | 0.00 | 82 | 1017.1 |
| 20260507093303 | 6 | 145 | 0.0 | 0.0 | 0.00 | 0.00 | 0.00 | 82 | 1017.1 |
| 20260507092802 | 6 | 145 | 0.0 | 0.0 | 0.00 | 0.00 | 0.00 | 82 | 1017.1 |
| 20260507092306 | 6 | 145 | 0.0 | 0.0 | 0.00 | 0.00 | 0.00 | 82 | 1017.1 |
| 20260507091803 | 6 | 145 | 0.0 | 0.0 | 0.00 | 0.00 | 0.00 | 82 | 1017.1 |
| 20260507091302 | 6 | 145 | 0.0 | 0.0 | 0.00 | 0.00 | 0.00 | 82 | 1017.1 |
| 20260507090802 | 6 | 145 | 0.0 | 0.0 | 0.00 | 0.00 | 0.00 | 81 | 1017.4 |
| 20260507090302 | 6 | 145 | 0.0 | 0.0 | 0.00 | 0.00 | 0.00 | 81 | 1017.4 |
| 20260507085803 | 6 | 145 | 0.0 | 0.0 | 0.00 | 0.00 | 0.00 | 80 | 1017.4 |
| 20260507085306 | 6 | 145 | 0.0 | 0.0 | 0.00 | 0.00 | 0.00 | 80 | 1017.4 |
| 20260507084303 | 6 | 145 | 0.0 | 0.0 | 0.00 | 0.00 | 0.00 | 79 | 1017.2 |
| 20260507083303 | 6 | 303 | 0.0 | 0.0 | 0.00 | 0.00 | 0.00 | 78 | 1017.2 |
| 20260507082802 | 6 | 303 | 0.0 | 0.0 | 0.00 | 0.00 | 0.00 | 78 | 1017.6 |
| 20260507082306 | 6 | 303 | 0.0 | 0.0 | 0.00 | 0.00 | 0.00 | 78 | 1017.6 |
| 20260507081802 | 6 | 303 | 0.0 | 0.0 | 0.00 | 0.00 | 0.00 | 77 | 1017.6 |
| 20260507081302 | 6 | 303 | 0.0 | 0.0 | 0.00 | 0.00 | 0.00 | 77 | 1017.6 |
| 20260507080802 | 6 | 303 | 0.0 | 0.0 | 0.00 | 0.00 | 0.00 | 76 | 1017.3 |
| 20260507080303 | 6 | 303 | 0.0 | 0.0 | 0.00 | 0.00 | 0.00 | 76 | 1017.3 |
| 20260507075802 | 6 | 303 | 0.0 | 0.0 | 0.00 | 0.00 | 0.00 | 75 | 1017.3 |
| 20260507075306 | 6 | 303 | 0.0 | 0.0 | 0.00 | 0.00 | 0.00 | 75 | 1017.3 |
| 20260507074302 | 6 | 303 | 0.0 | 0.0 | 0.00 | 0.00 | 0.00 | 74 | 1017.1 |
| 20260507073303 | 7 | 303 | 0.0 | 0.0 | 0.00 | 0.00 | 0.00 | 74 | 1017.1 |
| 20260507072802 | 7 | 303 | 0.0 | 0.0 | 0.00 | 0.00 | 0.00 | 73 | 1017.1 |
| 20260507072306 | 7 | 303 | 0.0 | 0.0 | 0.00 | 0.00 | 0.00 | 73 | 1017.1 |
| 20260507071802 | 7 | 303 | 0.0 | 0.0 | 0.00 | 0.00 | 0.00 | 73 | 1017.1 |
| 20260507071302 | 7 | 303 | 0.0 | 0.0 | 0.00 | 0.00 | 0.00 | 72 | 1017.1 |
| 20260507070803 | 7 | 303 | 0.0 | 0.0 | 0.00 | 0.00 | 0.00 | 72 | 1017.2 |
| 20260507070302 | 7 | 303 | 0.0 | 0.0 | 0.00 | 0.00 | 0.00 | 72 | 1017.2 |
| 20260507065803 | 7 | 303 | 0.0 | 0.0 | 0.00 | 0.00 | 0.00 | 71 | 1017.2 |
| 20260507065305 | 7 | 303 | 0.0 | 0.0 | 0.00 | 0.00 | 0.00 | 71 | 1017.2 |
| 20260507064802 | 7 | 303 | 0.0 | 0.0 | 0.00 | 0.00 | 0.00 | 71 | 1017.4 |
| 20260507064303 | 7 | 303 | 0.0 | 0.0 | 0.00 | 0.00 | 0.00 | 70 | 1017.4 |
| 20260507063803 | 7 | 303 | 0.0 | 0.0 | 0.00 | 0.00 | 0.00 | 69 | 1017.4 |
| 20260507063302 | 7 | 303 | 0.0 | 0.0 | 0.00 | 0.00 | 0.00 | 69 | 1017.4 |
| 20260507062306 | 7 | 303 | 0.0 | 0.0 | 0.00 | 0.00 | 0.00 | 69 | 1017.6 |
| 20260507061303 | 8 | 303 | 0.0 | 0.0 | 0.00 | 0.00 | 0.00 | 68 | 1017.6 |
| 20260507060803 | 8 | 303 | 0.0 | 0.0 | 0.00 | 0.00 | 0.00 | 68 | 1017.3 |
| 20260507060303 | 8 | 303 | 0.0 | 0.0 | 0.00 | 0.00 | 0.00 | 67 | 1017.3 |
| 20260507055803 | 8 | 303 | 0.0 | 0.0 | 0.00 | 0.00 | 0.00 | 66 | 1017.3 |
| 20260507055305 | 8 | 303 | 0.0 | 0.0 | 0.00 | 0.00 | 0.00 | 66 | 1017.3 |
| 20260507054802 | 8 | 303 | 0.0 | 0.0 | 0.00 | 0.00 | 0.00 | 65 | 1017.3 |
| 20260507054303 | 8 | 303 | 0.0 | 0.0 | 0.00 | 0.00 | 0.00 | 65 | 1017.3 |
| 20260507053802 | 8 | 303 | 0.0 | 0.0 | 0.00 | 0.00 | 0.00 | 64 | 1017.3 |
| 20260507052803 | 8 | 303 | 0.0 | 0.0 | 0.00 | 0.00 | 0.00 | 64 | 1017.3 |
| 20260507052305 | 8 | 303 | 0.0 | 0.0 | 0.00 | 0.00 | 0.00 | 63 | 1017.3 |
| 20260507051803 | 9 | 303 | 0.0 | 0.0 | 0.00 | 0.00 | 0.00 | 63 | 1017.3 |
| 20260507051302 | 9 | 303 | 0.0 | 0.0 | 0.00 | 0.00 | 0.00 | 62 | 1017.3 |
| 20260507050819 | 9 | 303 | 0.0 | 0.0 | 0.00 | 0.00 | 0.00 | 62 | 1017.1 |
| 20260507050303 | 9 | 303 | 0.0 | 0.0 | 0.00 | 0.00 | 0.00 | 62 | 1017.1 |
| 20260507045802 | 9 | 303 | 0.0 | 0.0 | 0.00 | 0.00 | 0.48 | 61 | 1017.1 |
| 20260507045306 | 9 | 303 | 0.0 | 0.0 | 0.00 | 0.00 | 0.48 | 61 | 1017.1 |
| 20260507044803 | 10 | 303 | 0.0 | 0.0 | 0.00 | 0.00 | 0.48 | 60 | 1017.0 |
| 20260507043803 | 10 | 303 | 0.0 | 0.0 | 0.00 | 0.00 | 0.48 | 59 | 1017.0 |
| 20260507043303 | 10 | 303 | 0.0 | 0.0 | 0.00 | 0.00 | 0.48 | 58 | 1017.0 |
| 20260507042803 | 10 | 303 | 0.0 | 0.0 | 0.00 | 0.00 | 0.48 | 58 | 1016.9 |
| 20260507042306 | 10 | 303 | 0.0 | 0.0 | 0.00 | 0.00 | 0.48 | 57 | 1016.9 |
| 20260507041302 | 10 | 303 | 0.0 | 0.0 | 0.00 | 0.00 | 0.48 | 56 | 1016.9 |
| 20260507040802 | 10 | 303 | 0.0 | 0.0 | 0.00 | 0.00 | 0.48 | 55 | 1016.8 |
| 20260507040303 | 10 | 303 | 0.0 | 0.0 | 0.00 | 0.00 | 0.48 | 55 | 1016.8 |
| 20260507035306 | 11 | 303 | 0.0 | 0.0 | 0.00 | 0.00 | 0.48 | 54 | 1016.8 |
| 20260507034802 | 11 | 347 | 0.0 | 0.0 | 0.00 | 0.00 | 0.48 | 53 | 1017.0 |
| 20260507034303 | 11 | 347 | 0.0 | 0.0 | 0.00 | 0.00 | 0.48 | 53 | 1017.0 |
| 20260507033802 | 11 | 303 | 0.0 | 0.0 | 0.00 | 0.00 | 0.48 | 52 | 1017.0 |
| 20260507033303 | 11 | 303 | 0.0 | 0.0 | 0.00 | 0.00 | 0.48 | 52 | 1017.0 |
| 20260507032803 | 11 | 303 | 0.0 | 0.0 | 0.00 | 0.00 | 0.48 | 51 | 1016.8 |
| 20260507031803 | 11 | 303 | 0.0 | 0.0 | 0.00 | 0.00 | 0.48 | 49 | 1016.8 |
| 20260507031303 | 12 | 303 | 0.0 | 0.0 | 0.00 | 0.00 | 0.48 | 49 | 1016.8 |
| 20260507030303 | 12 | 308 | 0.0 | 0.0 | 0.00 | 0.00 | 0.48 | 49 | 1017.0 |
| 20260507025802 | 12 | 347 | 0.0 | 3.2 | 0.00 | 0.00 | 0.48 | 49 | 1017.0 |
| 20260507025306 | 12 | 14 | 0.0 | 3.2 | 0.00 | 0.00 | 0.48 | 49 | 1017.0 |
| 20260507024804 | 12 | 303 | 1.6 | 0.0 | 0.00 | 0.00 | 0.48 | 48 | 1017.0 |
| 20260507023803 | 12 | 10 | 0.0 | 4.8 | 0.00 | 0.00 | 0.48 | 48 | 1017.0 |
| 20260507023303 | 12 | 230 | 0.0 | 3.2 | 0.00 | 0.00 | 0.48 | 48 | 1017.0 |
| 20260507022802 | 12 | 77 | 0.0 | 0.0 | 0.00 | 0.00 | 0.48 | 48 | 1016.5 |
| 20260507022306 | 12 | 85 | 0.0 | 3.2 | 0.00 | 0.00 | 0.48 | 48 | 1016.5 |
| 20260507021802 | 13 | 347 | 0.0 | 3.2 | 0.00 | 0.00 | 0.48 | 48 | 1016.5 |
| 20260507021303 | 13 | 334 | 0.0 | 4.8 | 0.00 | 0.00 | 0.48 | 48 | 1016.5 |
| 20260507020803 | 13 | 257 | 0.0 | 0.0 | 0.00 | 0.00 | 0.48 | 47 | 1016.1 |
| 20260507015802 | 13 | 325 | 0.0 | 0.0 | 0.00 | 0.00 | 0.48 | 47 | 1016.1 |
| 20260507014803 | 13 | 325 | 0.0 | 0.0 | 0.00 | 0.08 | 0.48 | 46 | 1015.8 |
| 20260507014303 | 13 | 347 | 0.0 | 0.0 | 0.00 | 0.18 | 0.48 | 45 | 1015.8 |
| 20260507013802 | 13 | 347 | 0.0 | 0.0 | 0.00 | 0.18 | 0.48 | 45 | 1015.8 |
| 20260507013303 | 13 | 3 | 0.0 | 0.0 | 0.00 | 0.18 | 0.48 | 45 | 1015.8 |
| 20260507012306 | 14 | 303 | 0.0 | 0.0 | 0.00 | 0.18 | 0.48 | 43 | 1015.3 |
| 20260507011802 | 14 | 347 | 1.6 | 0.0 | 0.00 | 0.18 | 0.48 | 43 | 1015.3 |
| 20260507011303 | 14 | 8 | 1.6 | 8.0 | 0.00 | 0.18 | 0.48 | 42 | 1015.3 |
| 20260507010803 | 14 | 325 | 1.6 | 8.0 | 0.00 | 0.18 | 0.48 | 42 | 1014.9 |
| 20260507010303 | 15 | 0 | 1.6 | 12.9 | 0.00 | 0.18 | 0.48 | 41 | 1014.9 |
| 20260507005305 | 15 | 330 | 1.6 | 4.8 | 0.00 | 0.18 | 0.48 | 40 | 1014.9 |
| 20260507004803 | 15 | 190 | 1.6 | 8.0 | 0.00 | 0.18 | 0.48 | 39 | 1014.9 |
| 20260507003803 | 16 | 347 | 1.6 | 4.8 | 0.00 | 0.18 | 0.48 | 40 | 1014.9 |
| 20260507003303 | 16 | 336 | 1.6 | 4.8 | 0.00 | 0.18 | 0.48 | 40 | 1014.9 |
| 20260507002803 | 15 | 190 | 1.6 | 8.0 | 0.00 | 0.18 | 0.48 | 40 | 1015.5 |
| 20260507002306 | 15 | 148 | 1.6 | 4.8 | 0.00 | 0.18 | 0.48 | 39 | 1015.5 |
| 20260507000803 | 16 | 190 | 3.2 | 19.3 | 0.00 | 0.18 | 0.48 | 39 | 1014.9 |
| 20260507000306 | 16 | 347 | 3.2 | 19.3 | 0.00 | 0.18 | 0.48 | 39 | 1014.9 |
| 20260506235803 | 16 | 303 | 3.2 | 4.8 | 0.00 | 0.18 | 0.48 | 38 | 1014.9 |
| 20260506235306 | 16 | 319 | 4.8 | 9.7 | 0.00 | 0.18 | 0.48 | 38 | 1014.9 |
| 20260506234803 | 16 | 33 | 8.0 | 14.5 | 0.00 | 0.18 | 0.48 | 38 | 1015.1 |
| 20260506234303 | 16 | 212 | 8.0 | 19.3 | 0.00 | 0.18 | 0.48 | 37 | 1015.1 |
| 20260506233303 | 16 | 322 | 4.8 | 11.3 | 0.00 | 0.18 | 0.48 | 36 | 1015.1 |
| 20260506232803 | 17 | 100 | 4.8 | 22.5 | 0.00 | 0.18 | 0.48 | 36 | 1014.4 |
| 20260506232306 | 17 | 176 | 8.0 | 11.3 | 0.00 | 0.18 | 0.48 | 36 | 1014.4 |
| 20260506231803 | 17 | 303 | 6.4 | 20.9 | 0.00 | 0.18 | 0.48 | 35 | 1014.4 |
| 20260506231303 | 19 | 269 | 3.2 | 22.5 | 0.00 | 0.18 | 0.48 | 34 | 1014.4 |
| 20260506230802 | 20 | 55 | 3.2 | 22.5 | 0.00 | 0.18 | 0.48 | 32 | 1014.1 |
| 20260506230303 | 20 | 279 | 4.8 | 11.3 | 0.00 | 0.18 | 0.48 | 36 | 1014.1 |
| 20260506225803 | 20 | 347 | 8.0 | 11.3 | 0.00 | 0.18 | 0.48 | 34 | 1014.1 |
| 20260506225305 | 19 | 296 | 8.0 | 29.0 | 0.00 | 0.18 | 0.48 | 34 | 1014.1 |
| 20260506224804 | 18 | 280 | 6.4 | 14.5 | 0.00 | 0.18 | 0.48 | 34 | 1014.5 |
| 20260506224303 | 18 | 347 | 6.4 | 14.5 | 0.00 | 0.18 | 0.48 | 33 | 1014.5 |
| 20260506223303 | 19 | 242 | 8.0 | 20.9 | 0.00 | 0.18 | 0.48 | 33 | 1014.5 |
| 20260506222803 | 19 | 10 | 8.0 | 8.0 | 0.00 | 0.18 | 0.48 | 33 | 1014.3 |
| 20260506222306 | 20 | 316 | 6.4 | 16.1 | 0.00 | 0.18 | 0.48 | 34 | 1014.3 |
| 20260506221803 | 20 | 235 | 4.8 | 12.9 | 0.00 | 0.18 | 0.48 | 34 | 1014.3 |
| 20260506221303 | 20 | 339 | 6.4 | 11.3 | 0.00 | 0.18 | 0.48 | 33 | 1014.3 |
| 20260506220303 | 19 | 347 | 9.7 | 25.7 | 0.00 | 0.18 | 0.48 | 34 | 1014.6 |
| 20260506215803 | 20 | 303 | 8.0 | 12.9 | 0.00 | 0.18 | 0.48 | 35 | 1014.6 |
| 20260506214803 | 20 | 303 | 8.0 | 16.1 | 0.00 | 0.18 | 0.48 | 33 | 1014.5 |
| 20260506214303 | 20 | 328 | 8.0 | 16.1 | 0.00 | 0.18 | 0.48 | 36 | 1014.5 |
| 20260506213303 | 20 | 264 | 8.0 | 12.9 | 0.00 | 0.18 | 0.48 | 36 | 1014.5 |
| 20260506212803 | 20 | 213 | 8.0 | 19.3 | 0.00 | 0.18 | 0.48 | 36 | 1014.8 |
| 20260506212306 | 19 | 323 | 8.0 | 19.3 | 0.00 | 0.18 | 0.48 | 35 | 1014.8 |
| 20260506211802 | 18 | 347 | 8.0 | 16.1 | 0.00 | 0.18 | 0.48 | 36 | 1014.8 |
| 20260506211303 | 20 | 299 | 8.0 | 9.7 | 0.00 | 0.18 | 0.48 | 37 | 1014.8 |
| 20260506210803 | 20 | 10 | 6.4 | 12.9 | 0.00 | 0.18 | 0.48 | 36 | 1015.0 |
| 20260506210303 | 20 | 286 | 3.2 | 11.3 | 0.00 | 0.18 | 0.48 | 37 | 1015.0 |
| 20260506205803 | 20 | 77 | 3.2 | 8.0 | 0.00 | 0.18 | 0.48 | 38 | 1015.0 |
| 20260506205306 | 18 | 296 | 4.8 | 4.8 | 0.00 | 0.18 | 0.48 | 37 | 1015.0 |
| 20260506204803 | 18 | 100 | 8.0 | 16.1 | 0.00 | 0.18 | 0.48 | 37 | 1015.3 |
| 20260506204303 | 18 | 202 | 8.0 | 16.1 | 0.00 | 0.18 | 0.48 | 36 | 1015.3 |
| 20260506203804 | 20 | 33 | 8.0 | 14.5 | 0.00 | 0.18 | 0.48 | 36 | 1015.3 |
| 20260506203303 | 19 | 347 | 8.0 | 14.5 | 0.00 | 0.18 | 0.48 | 36 | 1015.3 |
| 20260506202803 | 19 | 100 | 8.0 | 14.5 | 0.00 | 0.18 | 0.48 | 35 | 1015.5 |
| 20260506202306 | 19 | 0 | 8.0 | 27.4 | 0.00 | 0.18 | 0.48 | 36 | 1015.5 |
| 20260506201803 | 20 | 145 | 4.8 | 11.3 | 0.00 | 0.18 | 0.48 | 37 | 1015.5 |
| 20260506201303 | 19 | 328 | 4.8 | 19.3 | 0.00 | 0.18 | 0.48 | 37 | 1015.5 |
| 20260506200804 | 18 | 347 | 8.0 | 9.7 | 0.00 | 0.18 | 0.48 | 37 | 1015.5 |
| 20260506200303 | 18 | 290 | 4.8 | 11.3 | 0.00 | 0.18 | 0.48 | 38 | 1015.5 |
| 20260506195803 | 17 | 303 | 4.8 | 12.9 | 0.00 | 0.18 | 0.48 | 37 | 1015.5 |
| 20260506195305 | 18 | 334 | 9.7 | 14.5 | 0.00 | 0.18 | 0.48 | 37 | 1015.5 |
| 20260506194804 | 17 | 10 | 9.7 | 25.7 | 0.00 | 0.18 | 0.48 | 34 | 1015.7 |
| 20260506194304 | 18 | 334 | 8.0 | 25.7 | 0.00 | 0.18 | 0.48 | 36 | 1015.7 |
| 20260506193803 | 18 | 190 | 8.0 | 19.3 | 0.00 | 0.18 | 0.48 | 36 | 1015.7 |
| 20260506193304 | 18 | 272 | 8.0 | 11.3 | 0.00 | 0.18 | 0.48 | 36 | 1015.7 |
| 20260506192305 | 18 | 321 | 9.7 | 16.1 | 0.00 | 0.18 | 0.48 | 37 | 1015.7 |
| 20260506191803 | 18 | 325 | 9.7 | 16.1 | 0.00 | 0.18 | 0.48 | 37 | 1015.7 |
| 20260506191303 | 18 | 85 | 8.0 | 9.7 | 0.00 | 0.18 | 0.48 | 39 | 1015.7 |
| 20260506190804 | 18 | 190 | 4.8 | 8.0 | 0.00 | 0.18 | 0.48 | 39 | 1015.7 |
| 20260506190303 | 18 | 294 | 3.2 | 11.3 | 0.00 | 0.18 | 0.48 | 42 | 1015.7 |
| 20260506185803 | 16 | 33 | 4.8 | 11.3 | 0.00 | 0.18 | 0.48 | 42 | 1015.7 |
| 20260506185306 | 17 | 333 | 6.4 | 8.0 | 0.00 | 0.18 | 0.48 | 42 | 1015.7 |
| 20260506184803 | 17 | 347 | 4.8 | 19.3 | 0.00 | 0.18 | 0.48 | 41 | 1015.7 |
| 20260506184303 | 18 | 153 | 8.0 | 11.3 | 0.00 | 0.18 | 0.48 | 42 | 1015.7 |
| 20260506183803 | 17 | 325 | 8.0 | 16.1 | 0.00 | 0.18 | 0.48 | 40 | 1015.7 |
| 20260506183304 | 17 | 327 | 6.4 | 14.5 | 0.00 | 0.18 | 0.48 | 41 | 1015.7 |
| 20260506182803 | 17 | 167 | 4.8 | 8.0 | 0.00 | 0.18 | 0.48 | 45 | 1016.2 |
| 20260506182306 | 17 | 107 | 8.0 | 14.5 | 0.00 | 0.18 | 0.48 | 44 | 1016.2 |
| 20260506181303 | 17 | 321 | 4.8 | 16.1 | 0.00 | 0.18 | 0.48 | 47 | 1016.2 |
| 20260506175803 | 16 | 257 | 8.0 | 24.1 | 0.00 | 0.18 | 0.48 | 54 | 1016.4 |
| 20260506175306 | 16 | 321 | 9.7 | 24.1 | 0.00 | 0.18 | 0.48 | 54 | 1016.4 |
| 20260506174304 | 15 | 12 | 4.8 | 24.1 | 0.00 | 0.18 | 0.48 | 57 | 1016.4 |
| 20260506173804 | 15 | 347 | 3.2 | 24.1 | 0.00 | 0.18 | 0.48 | 58 | 1016.4 |
| 20260506172803 | 14 | 10 | 4.8 | 11.3 | 0.00 | 0.18 | 0.48 | 61 | 1016.6 |
| 20260506172306 | 14 | 304 | 8.0 | 14.5 | 0.00 | 0.18 | 0.48 | 64 | 1016.6 |
| 20260506171803 | 13 | 190 | 9.7 | 19.3 | 0.00 | 0.18 | 0.48 | 63 | 1016.6 |
| 20260506171303 | 13 | 0 | 8.0 | 19.3 | 0.00 | 0.18 | 0.48 | 63 | 1016.6 |
| 20260506170803 | 13 | 347 | 4.8 | 12.9 | 0.00 | 0.18 | 0.48 | 65 | 1016.3 |
| 20260506170303 | 13 | 22 | 4.8 | 14.5 | 0.00 | 0.18 | 0.48 | 65 | 1016.3 |
| 20260506165803 | 13 | 347 | 3.2 | 8.0 | 0.00 | 0.18 | 0.48 | 68 | 1016.3 |
| 20260506165305 | 13 | 340 | 3.2 | 8.0 | 0.00 | 0.18 | 0.48 | 68 | 1016.3 |
| 20260506164804 | 13 | 303 | 4.8 | 8.0 | 0.00 | 0.18 | 0.48 | 70 | 1016.5 |